DW9501 Weather Reports


time (UTC)temp
C
wind
direction
speed
KPH
gust
KPH
rain 1hr
cm
rain 24hr
cm
rain mn
cm
humidity
%
barometer
mb
20260510082337 6 267 1.6 4.8 0.00 0.00 0.00 67 1010.0
20260510081322 6 249 1.6 8.0 0.00 0.00 0.00 67 1010.0
20260510080319 6 250 0.0 8.0 0.00 0.00 0.00 67 1009.8
20260510075323 6 256 0.0 8.0 0.00 0.00 0.00 67 1009.8
20260510074312 6 267 1.6 8.0 0.00 0.00 0.00 66 1009.7
20260510073330 7 234 1.6 4.8 0.00 0.00 0.00 65 1009.6
20260510071148 7 289 1.6 9.7 0.00 0.00 0.00 62 1009.5
20260510070152 8 250 3.2 9.7 0.00 0.00 0.00 61 1009.3
20260510065145 8 264 3.2 9.7 0.00 0.00 0.00 59 1009.2
20260510064128 8 257 1.6 6.4 0.00 0.00 0.00 59 1009.1
20260510063131 8 248 1.6 6.4 0.00 0.00 0.00 59 1009.0
20260510060939 9 249 0.0 4.8 0.00 0.00 0.00 62 1008.8
20260510055936 9 259 0.0 4.8 0.00 0.00 0.00 62 1008.8
20260510054924 9 269 0.0 4.8 0.00 0.00 0.00 63 1008.4
20260510053855 10 255 0.0 4.8 0.00 0.00 0.00 63 1008.3
20260510052908 10 255 0.0 4.8 0.00 0.00 0.00 63 1008.2
20260510051841 10 250 0.0 3.2 0.00 0.00 0.00 63 1008.2
20260510050842 10 272 0.0 0.0 0.00 0.00 0.00 62 1008.0
20260510045809 10 252 0.0 4.8 0.00 0.00 0.00 63 1008.3
20260510044751 10 261 0.0 0.0 0.00 0.00 0.00 64 1007.9
20260510043807 10 244 0.0 3.2 0.00 0.00 0.00 64 1007.7
20260510042815 10 255 0.0 3.2 0.00 0.00 0.00 63 1007.7
20260510041755 10 252 0.0 4.8 0.00 0.00 0.00 63 1007.4
20260510040733 10 237 0.0 6.4 0.00 0.00 0.00 63 1007.4
20260510035732 10 256 0.0 6.4 0.00 0.00 0.00 66 1007.3
20260510034740 10 276 0.0 1.6 0.00 0.00 0.00 68 1007.2
20260510033715 10 259 0.0 3.2 0.00 0.00 0.00 67 1007.0
20260510032652 10 276 0.0 4.8 0.00 0.00 0.00 67 1006.9
20260510031649 11 247 0.0 3.2 0.00 0.00 0.00 65 1006.6
20260510030632 11 215 0.0 4.8 0.00 0.00 0.00 67 1006.5
20260510025605 11 264 0.0 4.8 0.00 0.00 0.00 74 1006.7
20260510024625 11 250 0.0 3.2 0.00 0.00 0.00 75 1006.6
20260510023609 12 312 0.0 8.0 0.00 0.00 0.00 78 1006.7
20260510021539 12 264 0.0 3.2 0.00 0.00 0.00 88 1006.2
20260510020526 12 254 0.0 0.0 0.00 0.00 0.00 88 1006.0
20260510015452 12 250 0.0 1.6 0.00 0.00 0.00 88 1005.7
20260510014459 11 252 0.0 1.6 0.00 0.00 0.00 88 1005.5
20260510013503 11 239 0.0 0.0 0.00 0.00 0.00 89 1005.2
20260510011402 11 220 0.0 0.0 0.00 0.00 0.00 88 1004.5
20260510010337 12 221 0.0 0.0 0.00 0.00 0.00 88 1004.3
20260510004158 12 311 0.0 0.0 0.00 0.00 0.00 87 1004.0
20260510002012 12 219 0.0 4.8 0.00 0.00 0.00 86 1003.7
20260510001001 12 279 0.0 3.2 0.00 0.00 0.00 84 1003.8
20260509235933 12 245 0.0 1.6 0.00 0.00 0.00 83 1003.5
20260509234938 12 222 0.0 1.6 0.00 0.00 0.00 85 1003.4
20260509233925 13 210 0.0 6.4 0.00 0.00 0.00 82 1003.5
20260509231801 13 225 3.2 14.5 0.00 0.00 0.00 81 1002.6
20260509224516 13 196 3.2 11.3 0.00 0.00 0.00 79 1002.6
20260509223512 12 217 0.0 9.7 0.00 0.00 0.00 82 1002.6
20260509222534 12 226 1.6 9.7 0.00 0.00 0.00 84 1002.6
20260509221527 12 215 3.2 19.3 0.00 0.00 0.00 84 1002.5
20260509220500 12 157 4.8 19.3 0.00 0.00 0.00 83 1002.5
20260509214316 13 213 1.6 9.7 0.00 0.00 0.00 83 1002.9
20260509213312 14 241 0.0 9.7 0.00 0.00 0.00 80 1002.7
20260509212305 14 167 1.6 11.3 0.00 0.00 0.00 77 1002.8
20260509211323 15 229 3.2 11.3 0.00 0.00 0.00 75 1002.9
20260509205158 15 168 0.0 11.3 0.00 0.00 0.00 73 1002.2
20260509203045 15 201 0.0 11.3 0.00 0.00 0.00 71 1002.4
20260509202104 15 231 0.0 9.7 0.00 0.00 0.00 71 1002.6
20260509201042 15 74 0.0 9.7 0.00 0.00 0.00 72 1002.5
20260509200028 15 177 0.0 4.8 0.00 0.00 0.00 72 1003.0
20260509195007 15 183 0.0 8.0 0.00 0.00 0.00 73 1003.0
20260509193937 15 84 0.0 8.0 0.00 0.00 0.00 72 1002.9
20260509192943 15 181 0.0 8.0 0.00 0.00 0.00 71 1003.3
20260509191954 15 199 1.6 8.0 0.00 0.00 0.00 70 1003.4
20260509190932 15 115 0.0 3.2 0.00 0.00 0.00 71 1003.4
20260509184804 16 168 0.0 0.0 0.00 0.00 0.00 72 1003.5
20260509183738 16 219 1.6 16.1 0.00 0.00 0.00 70 1003.6
20260509182725 16 65 0.0 6.4 0.00 0.00 0.00 70 1003.6
20260509181723 16 222 0.0 12.9 0.00 0.00 0.00 69 1003.7
20260509175620 16 160 1.6 9.7 0.00 0.00 0.00 67 1003.8
20260509174626 16 198 0.0 8.0 0.00 0.00 0.00 68 1004.1
20260509173554 16 65 1.6 8.0 0.00 0.00 0.00 69 1004.2
20260509172610 16 181 0.0 6.4 0.00 0.00 0.00 69 1004.4
20260509171627 16 186 0.0 4.8 0.00 0.00 0.00 71 1004.8
20260509165433 16 217 0.0 9.7 0.00 0.00 0.00 71 1005.1
20260509164410 15 201 0.0 3.2 0.00 0.00 0.00 74 1005.0
20260509163344 15 238 1.6 9.7 0.00 0.00 0.00 74 1005.1
20260509161211 14 205 1.6 12.9 0.00 0.00 0.00 79 1005.4
20260509160147 13 243 1.6 12.9 0.00 0.00 0.00 81 1005.6
20260509150606 12 262 0.0 0.0 0.00 0.00 0.00 87 1006.2
20260509145608 11 75 0.0 0.0 0.00 0.00 0.00 86 1006.1
20260509144616 11 165 0.0 1.6 0.00 0.00 0.00 86 1006.2
20260509143604 12 58 0.0 1.6 0.00 0.00 0.00 85 1006.4
20260509142626 12 227 0.0 4.8 0.00 0.00 0.00 85 1006.6
20260509141646 12 174 0.0 0.0 0.00 0.00 0.00 84 1006.6
20260509140628 12 236 0.0 4.8 0.00 0.00 0.00 84 1006.5
20260509134512 12 203 0.0 1.6 0.00 0.00 0.00 80 1006.8
20260509133450 12 153 0.0 0.0 0.00 0.00 0.00 77 1006.7
20260509132505 11 42 0.0 3.2 0.00 0.00 0.00 75 1006.9
20260509131441 11 66 0.0 8.0 0.00 0.00 0.00 74 1006.9
20260509130408 11 54 0.0 1.6 0.00 0.00 0.00 76 1007.0
20260509125418 11 51 0.0 0.0 0.00 0.00 0.00 76 1007.0
20260509124422 11 59 0.0 4.8 0.00 0.00 0.00 73 1007.1
20260509123441 10 177 0.0 0.0 0.00 0.00 0.00 72 1007.2
20260509121311 9 68 0.0 0.0 0.00 0.00 0.00 71 1007.2
20260509120302 8 63 0.0 1.6 0.00 0.00 0.00 72 1007.1
20260509115308 8 63 0.0 3.2 0.00 0.00 0.00 72 1007.1
20260509114323 7 60 0.0 0.0 0.00 0.00 0.00 74 1007.2
20260509113317 7 61 0.0 1.6 0.00 0.00 0.00 75 1007.2
20260509112337 6 36 0.0 0.0 0.00 0.00 0.00 77 1007.2
20260509111305 6 44 0.0 0.0 0.00 0.00 0.00 80 1007.3
20260509110256 5 44 0.0 0.0 0.00 0.00 0.00 82 1007.2
20260509105238 5 44 0.0 0.0 0.00 0.00 0.00 83 1007.3
20260509104211 5 44 0.0 0.0 0.00 0.00 0.00 85 1007.4
20260509103153 4 44 0.0 0.0 0.00 0.00 0.00 85 1007.3
20260509102128 4 44 0.0 0.0 0.00 0.00 0.00 85 1007.3
20260509100002 4 5 0.0 0.0 0.00 0.00 0.00 85 1007.4
20260509095025 3 5 0.0 0.0 0.00 0.00 0.00 86 1007.4
20260509093951 3 5 0.0 0.0 0.00 0.00 0.00 87 1007.6
20260509091830 4 5 0.0 0.0 0.00 0.00 0.00 86 1007.6
20260509090835 4 5 0.0 0.0 0.00 0.00 0.00 85 1007.6
20260509085808 4 5 0.0 0.0 0.00 0.00 0.00 85 1007.7
20260509084734 4 5 0.0 0.0 0.00 0.00 0.00 84 1007.7